Change the Weather History Date:

Tuesday, July 9, 2013

  Actual Average Record
Temperature  
Mean Temperature 76 °F -  
Max Temperature 84 °F 84 °F 98 °F (1974)
Min Temperature 68 °F 62 °F 8 °F (1998)
Cooling Degree Days 11    
Growing Degree Days 26 (Base 50)    
Moisture  
Dew Point 70 °F    
Average Humidity 83    
Maximum Humidity 100    
Minimum Humidity 62    
Precipitation  
Precipitation 0.00 in - - ()
Sea Level Pressure  
Sea Level Pressure 29.89 in    
Wind  
Wind Speed 8 mph (West)    
Max Wind Speed 29 mph    
Max Gust Speed 43 mph    
Visibility 10 miles    
Events Rain , Thunderstorm    
Averages and records for this station are not official NWS values.
T = Trace of Precipitation, MM = Missing Value Source: NWS Daily Summary

Daily Weather History Graph

Daily Weather History Graph

Search for Another Location

Airport or City:

Trip Planner

Search our weather history database for the weather conditions in past years. The results will help you decide how hot, cold, wet, or windy it might be!

Date:

Astronomy

Jul. 09, 2013 Rise Set
Actual Time 5:40 AM CDT 9:05 PM CDT
Civil Twilight 5:03 AM CDT 9:42 PM CDT
Nautical Twilight 4:15 AM CDT 10:30 PM CDT
Astronomical Twilight 3:14 AM CDT 11:31 PM CDT
Moon 7:11 AM CDT (7/9) 9:35 PM CDT (7/9)
Length of Visible Light 16h 38m
Length of Day
15h 25m
New Moon, 2% of the Moon is Illuminated
Jul 9
New Moon
Jul 15
First Quarter
Jul 22
Full
Jul 29
Last Quarter
Aug 6
New

Hourly Weather History & Observations

Time (CDT) Temp. Heat Index Dew Point Humidity Pressure Visibility Wind Dir Wind Speed Gust Speed Precip Events Conditions
12:12 AM 75.2 °F - 71.6 °F 89% 29.97 in 10.0 mi East 4.6 mph - N/A   Clear
12:33 AM 73.4 °F - 71.6 °F 94% 29.97 in 10.0 mi East 3.5 mph - N/A   Clear
12:53 AM 73.4 °F - 71.6 °F 94% 29.97 in 10.0 mi East 3.5 mph - N/A   Clear
1:12 AM 71.6 °F - 69.8 °F 94% 29.96 in 10.0 mi East 3.5 mph - N/A   Clear
1:33 AM 71.6 °F - 71.6 °F 100% 29.95 in 10.0 mi East 4.6 mph - N/A   Clear
1:53 AM 71.6 °F - 71.6 °F 100% 29.95 in 10.0 mi East 4.6 mph - N/A   Clear
2:13 AM 71.6 °F - 69.8 °F 94% 29.93 in 7.0 mi ESE 4.6 mph - N/A   Clear
2:33 AM 71.6 °F - 71.6 °F 100% 29.92 in 10.0 mi SE 6.9 mph - N/A   Clear
2:53 AM 73.4 °F - 71.6 °F 94% 29.92 in 10.0 mi SE 6.9 mph - N/A   Clear
3:13 AM 73.4 °F - 71.6 °F 94% 29.91 in 10.0 mi ESE 5.8 mph - N/A   Scattered Clouds
3:33 AM 73.4 °F - 71.6 °F 94% 29.91 in 10.0 mi ESE 6.9 mph - N/A   Scattered Clouds
3:53 AM 73.4 °F - 71.6 °F 94% 29.90 in 10.0 mi ESE 8.1 mph - N/A   Scattered Clouds
4:13 AM 73.4 °F - 71.6 °F 94% 29.89 in 10.0 mi ESE 6.9 mph - N/A   Scattered Clouds
4:33 AM 73.4 °F - 71.6 °F 94% 29.90 in 10.0 mi ESE 5.8 mph - N/A   Clear
4:53 AM 73.4 °F - 71.6 °F 94% 29.88 in 10.0 mi ESE 5.8 mph - N/A   Clear
5:13 AM 73.4 °F - 71.6 °F 94% 29.87 in 7.0 mi SE 6.9 mph - N/A   Clear
5:33 AM 73.4 °F - 71.6 °F 94% 29.86 in 10.0 mi SE 6.9 mph - N/A Thunderstorm Clear
5:53 AM 73.4 °F - 71.6 °F 94% 29.85 in 10.0 mi SE 5.8 mph - N/A   Clear
6:13 AM 73.4 °F - 71.6 °F 94% 29.83 in 10.0 mi SE 6.9 mph - N/A Thunderstorm Clear
6:32 AM 73.4 °F - 71.6 °F 94% 29.83 in 10.0 mi SE 5.8 mph - N/A   Scattered Clouds
6:53 AM 73.4 °F - 69.8 °F 88% 29.89 in 5.0 mi WNW 28.8 mph 42.6 mph N/A Rain , Thunderstorm Thunderstorms and Rain
7:13 AM 68.0 °F - 68.0 °F 100% 29.88 in 4.0 mi NW 4.6 mph 21.9 mph N/A Rain , Thunderstorm Thunderstorms and Rain
7:33 AM 68.0 °F - 68.0 °F 100% 29.83 in 4.0 mi ENE 3.5 mph - N/A Rain , Thunderstorm Light Thunderstorms and Rain
7:53 AM 68.0 °F - 68.0 °F 100% 29.78 in 10.0 mi East 13.8 mph - N/A Rain Light Rain
8:13 AM 68.0 °F - 68.0 °F 100% 29.76 in 10.0 mi ESE 9.2 mph - N/A   Light Drizzle
8:33 AM 69.8 °F - 69.8 °F 100% 29.77 in 10.0 mi West 4.6 mph - N/A Rain Light Rain
8:53 AM 69.8 °F - 69.8 °F 100% 29.80 in 10.0 mi WSW 6.9 mph - N/A   Clear
9:13 AM 71.6 °F - 71.6 °F 100% 29.82 in 10.0 mi WSW 6.9 mph - N/A   Clear
9:33 AM 71.6 °F - 71.6 °F 100% 29.83 in 10.0 mi SW 5.8 mph - N/A   Mostly Cloudy
9:53 AM 71.6 °F - 69.8 °F 94% 29.84 in 10.0 mi SW 4.6 mph - N/A   Mostly Cloudy
10:13 AM 73.4 °F - 71.6 °F 94% 29.85 in 10.0 mi WSW 6.9 mph - N/A   Mostly Cloudy
10:33 AM 73.4 °F - 69.8 °F 88% 29.86 in 10.0 mi WSW 8.1 mph - N/A   Mostly Cloudy
10:53 AM 73.4 °F - 69.8 °F 88% 29.86 in 10.0 mi West 10.4 mph - N/A   Overcast
11:13 AM 73.4 °F - 69.8 °F 88% 29.87 in 10.0 mi West 8.1 mph - N/A   Overcast
11:32 AM 73.4 °F - 69.8 °F 88% 29.87 in 10.0 mi West 10.4 mph - N/A   Overcast
11:53 AM 75.2 °F - 69.8 °F 83% 29.87 in 10.0 mi West 13.8 mph 19.6 mph N/A   Overcast
12:13 PM 75.2 °F - 71.6 °F 89% 29.87 in 10.0 mi West 15.0 mph 20.7 mph N/A   Overcast
12:33 PM 78.8 °F - 71.6 °F 78% 29.86 in 10.0 mi West 12.7 mph 20.7 mph N/A   Mostly Cloudy
12:53 PM 80.6 °F 84.6 °F 71.6 °F 74% 29.86 in 10.0 mi West 12.7 mph 19.6 mph N/A   Scattered Clouds
1:12 PM 80.6 °F 84.6 °F 71.6 °F 74% 29.86 in 10.0 mi West 15.0 mph 23.0 mph N/A   Scattered Clouds
1:33 PM 82.4 °F 88.2 °F 73.4 °F 74% 29.85 in 10.0 mi West 16.1 mph 19.6 mph N/A   Scattered Clouds
1:52 PM 82.4 °F 87.2 °F 71.6 °F 70% 29.86 in 10.0 mi West 17.3 mph 21.9 mph N/A   Scattered Clouds
2:13 PM 82.4 °F 87.2 °F 71.6 °F 70% 29.85 in 10.0 mi West 11.5 mph 18.4 mph N/A   Mostly Cloudy
2:33 PM 82.4 °F 87.2 °F 71.6 °F 70% 29.85 in 10.0 mi West 15.0 mph 23.0 mph N/A   Mostly Cloudy
2:52 PM 84.2 °F 89.6 °F 71.6 °F 66% 29.85 in 10.0 mi West 13.8 mph 26.5 mph N/A   Scattered Clouds
3:13 PM 84.2 °F 89.6 °F 71.6 °F 66% 29.85 in 10.0 mi West 15.0 mph 23.0 mph N/A   Scattered Clouds
3:33 PM 84.2 °F 89.6 °F 71.6 °F 66% 29.86 in 10.0 mi West 16.1 mph 23.0 mph N/A   Scattered Clouds
3:52 PM 84.2 °F 89.6 °F 71.6 °F 66% 29.86 in 10.0 mi West 13.8 mph 19.6 mph N/A   Scattered Clouds
4:13 PM 84.2 °F 89.6 °F 71.6 °F 66% 29.86 in 10.0 mi West 13.8 mph 18.4 mph N/A   Scattered Clouds
4:33 PM 84.2 °F 89.6 °F 71.6 °F 66% 29.86 in 10.0 mi West 15.0 mph 20.7 mph N/A   Scattered Clouds
4:52 PM 84.2 °F 89.6 °F 71.6 °F 66% 29.87 in 10.0 mi West 13.8 mph 18.4 mph N/A   Scattered Clouds
5:13 PM 84.2 °F 88.4 °F 69.8 °F 62% 29.87 in 10.0 mi West 12.7 mph 19.6 mph N/A   Scattered Clouds
5:33 PM 84.2 °F 89.6 °F 71.6 °F 66% 29.87 in 10.0 mi West 12.7 mph 23.0 mph N/A   Scattered Clouds
5:52 PM 84.2 °F 88.4 °F 69.8 °F 62% 29.87 in 10.0 mi WNW 13.8 mph 23.0 mph N/A   Scattered Clouds
6:13 PM 82.4 °F 86.3 °F 69.8 °F 66% 29.88 in 10.0 mi WNW 13.8 mph 18.4 mph N/A   Scattered Clouds
6:33 PM 82.4 °F 86.3 °F 69.8 °F 66% 29.89 in 10.0 mi WNW 13.8 mph 21.9 mph N/A   Clear
6:52 PM 82.4 °F 86.3 °F 69.8 °F 66% 29.90 in 10.0 mi WNW 10.4 mph - N/A   Clear
7:13 PM 82.4 °F 86.3 °F 69.8 °F 66% 29.90 in 10.0 mi WNW 11.5 mph - N/A   Clear
7:32 PM 80.6 °F 83.9 °F 69.8 °F 70% 29.90 in 10.0 mi WNW 10.4 mph 20.7 mph N/A   Clear
7:53 PM 80.6 °F 83.2 °F 68.0 °F 65% 29.91 in 10.0 mi WNW 12.7 mph - N/A   Clear
8:13 PM 80.6 °F 83.9 °F 69.8 °F 70% 29.91 in 10.0 mi West 10.4 mph - N/A   Clear
8:32 PM 78.8 °F - 69.8 °F 74% 29.91 in 10.0 mi WNW 5.8 mph - N/A   Clear
8:53 PM 78.8 °F - 69.8 °F 74% 29.91 in 10.0 mi WNW 11.5 mph - N/A   Clear
9:12 PM 77.0 °F - 69.8 °F 78% 29.92 in 10.0 mi NW 10.4 mph 17.3 mph N/A   Scattered Clouds
9:33 PM 75.2 °F - 68.0 °F 78% 29.93 in 10.0 mi NW 11.5 mph 17.3 mph N/A   Clear
9:53 PM 73.4 °F - 66.2 °F 78% 29.95 in 10.0 mi NW 10.4 mph - N/A   Clear
10:12 PM 73.4 °F - 66.2 °F 78% 29.95 in 10.0 mi WNW 11.5 mph 21.9 mph N/A   Clear
10:33 PM 71.6 °F - 66.2 °F 83% 29.96 in 10.0 mi WNW 12.7 mph 17.3 mph N/A   Clear
10:53 PM 71.6 °F - 66.2 °F 83% 29.96 in 10.0 mi NW 10.4 mph 17.3 mph N/A   Clear
11:12 PM 69.8 °F - 66.2 °F 88% 29.97 in 10.0 mi NW 10.4 mph 16.1 mph N/A   Clear
11:33 PM 69.8 °F - 64.4 °F 83% 29.98 in 10.0 mi NW 10.4 mph - N/A   Scattered Clouds
11:53 PM 69.8 °F - 64.4 °F 83% 29.99 in 10.0 mi NW 10.4 mph - N/A   Scattered Clouds